TimeCST,TemperatureF,Dew PointF,Humidity,Sea Level PressureIn,VisibilityMPH,Wind Direction,Wind SpeedMPH,Gust SpeedMPH,PrecipitationIn,Events,Conditions,WindDirDegrees,DateUTC
12:15 AM,23.4,20.3,88,30.34,7.0,North,6.9,-,N/A,,Clear,10,2013-01-15 06:15:00
12:35 AM,23.5,20.3,87,30.34,10.0,North,4.6,-,N/A,,Clear,10,2013-01-15 06:35:00
12:55 AM,23.5,20.3,87,30.34,7.0,North,5.8,-,N/A,,Clear,10,2013-01-15 06:55:00
1:15 AM,23.4,20.3,88,30.34,7.0,North,5.8,-,N/A,,Clear,10,2013-01-15 07:15:00
1:35 AM,23.4,20.3,88,30.35,7.0,North,5.8,-,N/A,,Clear,360,2013-01-15 07:35:00
1:55 AM,23.0,20.3,89,30.34,7.0,North,4.6,-,N/A,,Clear,10,2013-01-15 07:55:00
2:15 AM,23.0,20.8,91,30.34,7.0,North,4.6,-,N/A,,Clear,10,2013-01-15 08:15:00
2:35 AM,22.8,20.8,92,30.34,10.0,NNE,4.6,-,N/A,,Clear,20,2013-01-15 08:35:00
2:55 AM,22.6,20.8,93,30.33,7.0,NNE,3.5,-,N/A,,Clear,20,2013-01-15 08:55:00
3:15 AM,22.6,21.0,93,30.32,7.0,North,4.6,-,N/A,,Clear,360,2013-01-15 09:15:00
3:55 AM,22.6,21.0,93,30.31,7.0,NNE,4.6,-,N/A,,Clear,20,2013-01-15 09:55:00
4:35 AM,22.6,21.2,94,30.30,7.0,North,5.8,-,N/A,,Scattered Clouds,10,2013-01-15 10:35:00
4:55 AM,22.8,21.2,93,30.30,7.0,NNE,3.5,-,N/A,,Scattered Clouds,20,2013-01-15 10:55:00
5:15 AM,22.8,21.0,93,30.29,7.0,NNE,4.6,-,N/A,,Clear,20,2013-01-15 11:15:00
5:35 AM,23.0,21.2,93,30.30,7.0,North,5.8,-,N/A,,Scattered Clouds,10,2013-01-15 11:35:00
5:55 AM,23.0,21.2,93,30.30,7.0,NNE,5.8,-,N/A,,Overcast,30,2013-01-15 11:55:00
6:15 AM,23.5,21.6,92,30.29,7.0,NNE,5.8,-,N/A,,Overcast,30,2013-01-15 12:15:00
6:35 AM,23.7,21.7,92,30.29,7.0,NE,6.9,-,N/A,,Overcast,40,2013-01-15 12:35:00
6:55 AM,23.9,22.1,93,30.31,7.0,NE,6.9,-,N/A,,Overcast,40,2013-01-15 12:55:00
7:15 AM,24.3,22.1,91,30.31,7.0,NE,5.8,-,N/A,,Overcast,40,2013-01-15 13:15:00
7:35 AM,24.6,22.3,91,30.31,7.0,NE,5.8,-,N/A,,Overcast,40,2013-01-15 13:35:00
7:55 AM,24.6,22.1,90,30.31,5.0,NE,6.9,-,N/A,,Overcast,40,2013-01-15 13:55:00
8:15 AM,24.8,22.1,89,30.30,5.0,NE,6.9,-,N/A,,Overcast,50,2013-01-15 14:15:00
8:55 AM,26.1,22.6,87,30.30,7.0,NE,9.2,-,N/A,,Scattered Clouds,40,2013-01-15 14:55:00
9:15 AM,27.5,23.5,85,30.30,7.0,NE,6.9,-,N/A,,Scattered Clouds,40,2013-01-15 15:15:00
9:35 AM,28.4,22.6,79,30.30,7.0,ENE,8.1,-,N/A,,Clear,60,2013-01-15 15:35:00
9:55 AM,29.7,23.5,78,30.28,10.0,NE,8.1,-,N/A,,Clear,40,2013-01-15 15:55:00
10:15 AM,31.1,23.0,72,30.28,10.0,NE,8.1,-,N/A,,Clear,50,2013-01-15 16:15:00
10:35 AM,31.8,22.6,69,30.26,10.0,NNE,6.9,-,N/A,,Clear,20,2013-01-15 16:35:00
10:55 AM,32.0,23.0,69,30.24,10.0,NNE,8.1,-,N/A,,Clear,20,2013-01-15 16:55:00
11:15 AM,32.0,22.8,69,30.17,10.0,NNE,10.4,19.6,N/A,,Scattered Clouds,30,2013-01-15 17:15:00
11:35 AM,32.0,21.2,64,30.21,10.0,NNE,5.8,-,N/A,,Mostly Cloudy,30,2013-01-15 17:35:00
11:55 AM,32.0,21.7,66,30.24,10.0,NNW,5.8,-,N/A,,Overcast,340,2013-01-15 17:55:00
12:15 PM,32.2,22.3,67,30.25,10.0,North,4.6,-,N/A,,Overcast,350,2013-01-15 18:15:00
12:35 PM,32.0,23.0,69,30.22,10.0,North,8.1,-,N/A,,Overcast,350,2013-01-15 18:35:00
12:55 PM,32.4,23.5,70,30.22,10.0,North,11.5,-,N/A,,Overcast,350,2013-01-15 18:55:00
1:35 PM,32.0,23.9,72,30.17,10.0,North,13.8,-,N/A,,Overcast,10,2013-01-15 19:35:00
1:55 PM,31.1,23.9,75,30.19,10.0,North,12.7,17.3,N/A,,Overcast,360,2013-01-15 19:55:00
2:15 PM,31.1,24.4,76,30.18,10.0,North,9.2,-,N/A,,Overcast,360,2013-01-15 20:15:00
2:35 PM,30.7,24.1,76,30.20,10.0,North,6.9,-,N/A,,Overcast,360,2013-01-15 20:35:00
2:55 PM,30.7,24.3,77,30.19,10.0,North,6.9,-,N/A,,Overcast,360,2013-01-15 20:55:00
3:15 PM,30.4,23.9,77,30.22,10.0,NNE,6.9,-,N/A,,Overcast,20,2013-01-15 21:15:00
3:35 PM,30.2,23.9,77,30.20,7.0,North,6.9,-,N/A,,Overcast,10,2013-01-15 21:35:00
3:55 PM,30.2,24.3,79,30.18,7.0,NNE,8.1,-,N/A,,Overcast,20,2013-01-15 21:55:00
4:15 PM,30.0,23.9,78,30.18,7.0,NNE,8.1,-,N/A,,Overcast,30,2013-01-15 22:15:00
4:35 PM,30.2,24.3,79,30.16,7.0,NE,6.9,-,N/A,,Overcast,40,2013-01-15 22:35:00
4:55 PM,30.0,24.8,81,30.17,2.0,NNE,3.5,-,N/A,Snow,Light Snow,20,2013-01-15 22:55:00
5:15 PM,29.5,26.2,88,30.15,4.0,North,5.8,-,0.01,Snow,Light Snow,10,2013-01-15 23:15:00
5:35 PM,29.5,26.4,88,30.16,5.0,NNE,6.9,-,0.02,Rain,Freezing Rain,20,2013-01-15 23:35:00
5:55 PM,29.3,26.4,89,30.16,7.0,North,6.9,-,0.02,Rain,Freezing Rain,360,2013-01-15 23:55:00
6:15 PM,29.1,26.8,91,30.16,5.0,North,6.9,-,0.01,Snow,Light Snow,360,2013-01-16 00:15:00
6:35 PM,29.3,26.4,89,30.16,5.0,North,5.8,-,0.01,Snow,Light Snow,360,2013-01-16 00:35:00
6:55 PM,29.3,26.6,90,30.15,3.0,North,5.8,-,0.01,Snow,Light Snow,10,2013-01-16 00:55:00
7:15 PM,29.3,26.4,89,30.15,7.0,North,5.8,-,N/A,Rain,Freezing Rain,360,2013-01-16 01:15:00
7:35 PM,29.3,26.1,88,30.14,7.0,North,8.1,-,N/A,,Overcast,360,2013-01-16 01:35:00
7:55 PM,29.8,25.7,85,30.15,7.0,NNW,4.6,-,N/A,,Overcast,340,2013-01-16 01:55:00
8:15 PM,29.8,25.5,84,30.14,7.0,North,5.8,-,N/A,,Overcast,350,2013-01-16 02:15:00
8:35 PM,29.8,25.9,85,30.15,5.0,North,6.9,-,N/A,,Freezing Rain,350,2013-01-16 02:35:00
8:55 PM,29.3,26.8,90,30.14,4.0,North,3.5,-,N/A,,Freezing Rain,350,2013-01-16 02:55:00
9:15 PM,29.3,28.6,97,30.13,4.0,NNW,8.1,-,N/A,Rain,Freezing Rain,340,2013-01-16 03:15:00
9:35 PM,29.1,29.1,100,30.14,4.0,NNW,5.8,-,N/A,Rain,Freezing Rain,340,2013-01-16 03:35:00
9:55 PM,29.1,28.8,99,30.13,5.0,NNW,8.1,-,N/A,,Overcast,340,2013-01-16 03:55:00
10:15 PM,29.3,28.4,96,30.13,7.0,North,6.9,-,N/A,,Overcast,350,2013-01-16 04:15:00
10:35 PM,29.3,26.6,90,30.13,7.0,NNW,5.8,-,N/A,,Overcast,340,2013-01-16 04:35:00
10:55 PM,29.3,26.6,90,30.11,7.0,North,8.1,-,N/A,,Overcast,350,2013-01-16 04:55:00
11:15 PM,29.3,26.6,90,30.11,7.0,NNW,6.9,-,N/A,,Overcast,340,2013-01-16 05:15:00
11:35 PM,29.8,25.7,85,30.10,7.0,North,5.8,-,N/A,,Overcast,350,2013-01-16 05:35:00
11:55 PM,30.0,25.5,83,30.09,10.0,North,5.8,-,N/A,,Overcast,360,2013-01-16 05:55:00